QPF
0.00 0.01 0.03 0.04 0.04 0.04 0.03 0.05 0.07 0.06 0.04 0.04 0.07 0.05 0.03 0.04 0.04 0.01 0.00 0.00 0.00 0.00 0.00 0.00 0.00 0.00 0.00 0.00 0.00 0.00 0.00 0.00 0.00 0.00 0.00 0.00 0.00 0.00 0.00 0.00 0.00 0.00 0.00
0.00 0.00 0.01 0.03 0.04 0.03 0.03 0.04 0.05 0.05 0.03 0.04 0.03 0.04 0.04 0.02 0.03 0.03 0.02 0.00 0.00 0.00 0.00 0.00 0.00 0.00 0.00 0.00 0.00 0.00 0.00 0.00 0.00 0.00 0.00 0.00 0.00 0.00 0.00 0.00 0.00 0.00 0.00
0.00 0.00 0.00 0.01 0.03 0.03 0.03 0.04 0.03 0.04 0.02 0.01 0.03 0.02 0.01 0.01 0.00 0.01 0.02 0.02 0.01 0.00 0.01 0.00 0.01 0.01 0.00 0.00 0.00 0.00 0.00 0.00 0.00 0.00 0.00 0.00 0.00 0.00 0.00 0.00 0.00 0.00 0.00
0.00 0.00 0.00 0.00 0.01 0.02 0.01 0.02 0.02 0.03 0.03 0.02 0.01 0.02 0.02 0.01 0.01 0.01 0.01 0.01 0.02 0.01 0.00 0.00 0.00 0.00 0.00 0.00 0.00 0.00 0.00 0.00 0.00 0.00 0.00 0.00 0.00 0.00 0.00 0.00 0.00 0.00 0.00
0.00 0.00 0.00 0.00 0.00 0.00 0.01 0.01 0.01 0.01 0.02 0.02 0.02 0.01 0.01 0.03 0.03 0.02 0.02 0.02 0.02 0.02 0.01 0.00 0.00 0.01 0.01 0.01 0.01 0.00 0.00 0.00 0.00 0.00 0.00 0.00 0.00 0.00 0.00 0.00 0.00 0.00 0.00
0.00 0.00 0.00 0.00 0.00 0.00 0.00 0.00 0.00 0.00 0.00 0.01 0.02 0.02 0.01 0.01 0.01 0.01 0.02 0.01 0.01 0.02 0.02 0.01 0.01 0.01 0.01 0.01 0.00 0.00 0.00 0.00 0.00 0.00 0.00 0.00 0.00 0.00 0.00 0.00 0.00 0.00 0.00
0.00 0.00 0.00 0.00 0.00 0.00 0.00 0.00 0.00 0.00 0.00 0.00 0.00 0.01 0.01 0.00 0.01 0.01 0.01 0.01 0.01 0.00 0.00 0.01 0.01 0.00 0.00 0.00 0.00 0.00 0.00 0.00 0.00 0.00 0.00 0.00 0.00 0.00 0.00 0.00 0.00 0.00 0.00
0.00 0.00 0.00 0.00 0.00 0.00 0.00 0.00 0.00 0.00 0.00 0.00 0.00 0.00 0.00 0.00 0.00 0.00 0.01 0.01 0.01 0.00 0.00 0.00 0.00 0.00 0.00 0.00 0.00 0.00 0.00 0.00 0.00 0.00 0.00 0.00 0.00 0.00 0.00 0.00 0.00 0.00 0.00
0.00 0.00 0.00 0.00 0.00 0.00 0.00 0.00 0.00 0.00 0.00 0.00 0.00 0.00 0.00 0.00 0.00 0.00 0.00 0.00 0.00 0.00 0.00 0.01 0.00 0.00 0.00 0.00 0.00 0.00 0.00 0.00 0.00 0.00 0.00 0.00 0.00 0.00 0.00 0.00 0.00 0.00 0.00
0.00 0.00 0.00 0.00 0.00 0.00 0.00 0.00 0.00 0.00 0.00 0.00 0.00 0.00 0.00 0.00 0.00 0.00 0.00 0.00 0.00 0.00 0.00 0.00 0.00 0.00 0.00 0.00 0.00 0.00 0.00 0.00 0.00 0.00 0.00 0.00 0.00 0.00 0.00 0.00 0.00 0.00 0.00
0.00 0.00 0.00 0.00 0.00 0.00 0.00 0.00 0.00 0.00 0.00 0.00 0.00 0.00 0.00 0.00 0.00 0.00 0.00 0.00 0.00 0.00 0.00 0.00 0.00 0.00 0.00 0.00 0.00 0.00 0.00 0.00 0.00 0.00 0.00 0.00 0.00 0.00 0.00 0.00 0.00 0.00 0.00
0.00 0.00 0.00 0.00 0.00 0.00 0.00 0.00 0.00 0.00 0.00 0.00 0.00 0.00 0.00 0.00 0.00 0.00 0.00 0.00 0.00 0.00 0.00 0.00 0.00 0.00 0.00 0.00 0.00 0.00 0.00 0.00 0.00 0.00 0.00 0.00 0.00 0.00 0.00 0.00 0.00 0.00 0.00
0.00 0.00 0.00 0.00 0.00 0.00 0.00 0.00 0.00 0.00 0.00 0.00 0.00 0.00 0.00 0.00 0.00 0.00 0.00 0.00 0.00 0.00 0.00 0.00 0.00 0.00 0.00 0.00 0.00 0.00 0.00 0.00 0.00 0.00 0.00 0.00 0.00 0.00 0.00 0.00 0.00 0.00 0.00
0.00 0.00 0.00 0.00 0.00 0.00 0.00 0.00 0.00 0.00 0.00 0.00 0.00 0.00 0.00 0.00 0.00 0.00 0.00 0.00 0.00 0.00 0.00 0.00 0.00 0.00 0.00 0.00 0.00 0.00 0.00 0.00 0.00 0.00 0.00 0.00 0.00 0.00 0.00 0.00 0.00 0.00 0.00
0.00 0.00 0.00 0.00 0.00 0.00 0.00 0.00 0.00 0.00 0.00 0.00 0.00 0.00 0.00 0.00 0.00 0.00 0.00 0.00 0.00 0.00 0.00 0.00 0.00 0.00 0.00 0.00 0.00 0.00 0.00 0.00 0.00 0.00 0.00 0.00 0.00 0.00 0.00 0.00 0.00 0.00 0.00
0.00 0.00 0.00 0.00 0.00 0.00 0.00 0.00 0.00 0.00 0.00 0.01 0.01 0.01 0.00 0.00 0.00 0.00 0.00 0.00 0.00 0.00 0.00 0.00 0.00 0.00 0.00 0.00 0.00 0.00 0.00 0.00 0.00 0.00 0.00 0.00 0.00 0.00 0.00 0.00 0.00 0.00 0.00
0.00 0.00 0.00 0.00 0.00 0.00 0.00 0.00 0.00 0.00 0.00 0.00 0.01 0.01 0.01 0.01 0.01 0.01 0.00 0.00 0.00 0.00 0.00 0.00 0.00 0.00 0.00 0.00 0.00 0.00 0.00 0.00 0.00 0.00 0.00 0.00 0.00 0.00 0.00 0.00 0.00 0.00 0.00
0.00 0.00 0.00 0.00 0.00 0.00 0.00 0.00 0.00 0.00 0.00 0.00 0.00 0.00 0.01 0.01 0.01 0.01 0.01 0.00 0.00 0.00 0.00 0.00 0.00 0.00 0.00 0.00 0.00 0.00 0.00 0.00 0.00 0.00 0.00 0.00 0.00 0.00 0.00 0.00 0.00 0.00 0.00
0.00 0.00 0.00 0.00 0.00 0.00 0.00 0.00 0.00 0.00 0.00 0.00 0.00 0.00 0.00 0.01 0.01 0.01 0.01 0.00 0.00 0.00 0.00 0.00 0.00 0.00 0.00 0.00 0.00 0.00 0.00 0.00 0.00 0.00 0.00 0.00 0.00 0.00 0.00 0.00 0.00 0.00 0.00
0.00 0.00 0.00 0.00 0.00 0.00 0.00 0.00 0.00 0.00 0.00 0.00 0.00 0.00 0.00 0.00 0.00 0.00 0.00 0.00 0.00 0.00 0.00 0.00 0.00 0.00 0.00 0.00 0.00 0.00 0.00 0.00 0.00 0.00 0.00 0.00 0.00 0.00 0.00 0.00 0.00 0.00 0.00
0.00 0.00 0.00 0.00 0.00 0.00 0.00 0.00 0.00 0.00 0.00 0.00 0.00 0.00 0.00 0.00 0.00 0.00 0.00 0.00 0.00 0.00 0.00 0.00 0.00 0.00 0.00 0.00 0.00 0.00 0.00 0.00 0.00 0.00 0.00 0.00 0.00 0.00 0.00 0.00 0.00 0.00 0.00
0.00 0.00 0.00 0.00 0.00 0.00 0.00 0.00 0.00 0.00 0.00 0.00 0.00 0.00 0.00 0.00 0.00 0.00 0.00 0.00 0.00 0.00 0.00 0.00 0.00 0.00 0.00 0.00 0.00 0.00 0.00 0.00 0.00 0.00 0.00 0.00 0.00 0.00 0.00 0.00 0.00 0.00 0.00
0.00 0.00 0.00 0.00 0.00 0.00 0.00 0.00 0.00 0.00 0.00 0.00 0.00 0.00 0.00 0.00 0.00 0.00 0.00 0.00 0.00 0.00 0.00 0.00 0.00 0.00 0.00 0.00 0.00 0.00 0.00 0.00 0.00 0.00 0.00 0.00 0.00 0.00 0.00 0.00 0.00 0.00 0.00
0.00 0.00 0.00 0.00 0.00 0.00 0.00 0.00 0.00 0.00 0.00 0.00 0.00 0.00 0.00 0.00 0.00 0.00 0.00 0.00 0.00 0.00 0.00 0.00 0.00 0.00 0.00 0.00 0.00 0.00 0.00 0.00 0.00 0.00 0.00 0.00 0.00 0.00 0.00 0.00 0.00 0.00 0.00
0.00 0.00 0.00 0.00 0.00 0.00 0.00 0.00 0.00 0.00 0.00 0.00 0.00 0.00 0.00 0.00 0.00 0.00 0.00 0.00 0.00 0.00 0.00 0.00 0.00 0.00 0.00 0.00 0.00 0.00 0.00 0.00 0.00 0.00 0.00 0.00 0.00 0.00 0.00 0.00 0.00 0.00 0.00
0.00 0.00 0.00 0.00 0.00 0.00 0.00 0.00 0.00 0.00 0.00 0.00 0.00 0.00 0.00 0.00 0.00 0.00 0.00 0.00 0.00 0.00 0.00 0.00 0.00 0.00 0.00 0.00 0.00 0.00 0.00 0.00 0.00 0.00 0.00 0.00 0.00 0.00 0.00 0.00 0.00 0.00 0.00
MSLP
1016.59 1015.86 1015.00 1013.95 1013.26 1012.04 1012.26 1012.42 1012.37 1012.55 1012.76 1012.97 1014.30 1014.96 1015.33 1015.77 1016.57 1017.43 1018.08 1018.78 1019.43 1020.09 1020.75 1021.00 1021.36 1021.71 1022.21 1022.86 1023.34 1023.70 1024.44 1025.03 1026.44 1028.00 1028.22 1028.80 1028.93 1029.04 1029.34 1029.58 1029.71 1029.92 1030.02
1017.24 1016.56 1016.12 1015.06 1013.57 1013.03 1011.83 1011.82 1011.98 1011.93 1012.42 1012.36 1012.74 1013.76 1014.62 1015.04 1015.64 1016.40 1017.19 1017.85 1018.38 1019.00 1019.58 1020.16 1020.44 1021.04 1021.44 1022.03 1022.60 1023.06 1023.50 1024.17 1025.39 1027.21 1028.15 1028.69 1028.71 1029.04 1029.01 1029.48 1029.78 1029.87 1029.98
1017.37 1016.72 1016.77 1015.73 1014.72 1013.72 1013.33 1012.40 1011.58 1011.50 1011.35 1012.00 1012.07 1012.68 1012.63 1013.79 1014.48 1015.11 1015.93 1016.73 1017.46 1017.83 1018.43 1018.94 1019.26 1020.02 1020.56 1021.12 1021.69 1022.30 1022.99 1023.80 1024.47 1025.63 1027.47 1028.23 1028.76 1029.01 1029.39 1029.73 1029.88 1030.02 1029.98
1017.82 1017.90 1017.19 1016.65 1015.50 1014.51 1013.94 1013.28 1012.57 1011.49 1011.02 1011.22 1011.34 1011.48 1012.10 1012.51 1013.25 1014.03 1014.78 1015.46 1016.16 1016.73 1017.31 1017.85 1018.32 1018.86 1019.31 1020.05 1020.64 1021.28 1022.17 1023.14 1024.26 1025.07 1026.20 1027.00 1027.86 1028.64 1028.73 1029.29 1030.11 1030.33 1030.37
1018.45 1017.29 1017.57 1016.74 1015.86 1014.65 1014.72 1013.45 1013.02 1012.52 1011.72 1010.92 1010.62 1010.96 1010.94 1011.75 1012.13 1013.02 1013.73 1014.12 1014.76 1015.32 1015.89 1016.45 1017.05 1017.61 1018.11 1018.69 1019.44 1020.34 1021.17 1022.24 1023.44 1024.66 1025.41 1025.92 1026.40 1027.63 1027.37 1027.89 1029.07 1029.77 1030.28
1018.52 1017.96 1017.67 1017.58 1016.09 1015.22 1014.26 1013.55 1013.30 1012.89 1012.46 1011.86 1011.41 1010.90 1010.59 1010.88 1011.33 1011.59 1012.02 1012.85 1013.49 1014.19 1014.54 1015.05 1015.76 1016.51 1017.11 1017.77 1018.47 1019.23 1019.60 1020.32 1021.88 1023.27 1024.08 1024.91 1024.32 1025.32 1025.88 1026.81 1028.06 1029.15 1030.12
1018.48 1017.91 1017.88 1017.52 1016.65 1015.58 1015.12 1014.37 1013.70 1013.25 1012.54 1012.24 1011.82 1011.47 1011.11 1010.81 1010.36 1010.90 1010.90 1011.39 1011.89 1012.71 1013.40 1014.24 1015.07 1015.74 1016.27 1016.99 1017.74 1017.85 1018.91 1019.17 1020.24 1021.05 1021.59 1022.18 1023.11 1023.29 1024.24 1025.89 1026.47 1027.26 1027.75
1018.43 1018.33 1018.20 1017.47 1016.73 1015.73 1015.08 1014.23 1013.35 1013.59 1012.78 1012.35 1012.14 1011.97 1011.34 1011.13 1010.94 1010.74 1010.60 1010.74 1011.12 1011.64 1011.89 1012.70 1013.44 1014.22 1015.03 1015.38 1016.30 1016.93 1017.31 1018.70 1018.59 1019.52 1019.99 1020.66 1021.22 1022.08 1023.08 1023.89 1025.20 1026.50 1027.92
1019.53 1019.46 1018.40 1017.48 1016.90 1016.05 1015.63 1014.90 1013.83 1013.69 1013.13 1012.32 1011.77 1012.10 1011.67 1011.29 1011.15 1010.73 1011.06 1010.83 1011.07 1010.61 1010.95 1011.47 1011.66 1012.41 1013.08 1013.62 1014.88 1015.72 1016.91 1017.28 1017.57 1018.39 1019.58 1019.70 1020.16 1021.09 1022.33 1023.71 1024.94 1026.05 1027.20
1020.14 1019.48 1018.32 1017.37 1016.61 1016.20 1015.70 1015.06 1014.23 1013.72 1013.20 1012.72 1011.49 1011.72 1011.63 1011.21 1010.27 1010.30 1010.78 1010.76 1010.54 1010.44 1010.83 1011.12 1010.64 1011.08 1011.86 1012.46 1013.39 1014.41 1015.30 1015.73 1016.93 1018.56 1019.30 1019.41 1019.96 1020.66 1021.05 1021.83 1023.18 1024.21 1025.60
1020.07 1019.23 1018.41 1017.59 1016.95 1016.29 1015.36 1014.31 1013.90 1013.40 1013.04 1012.68 1011.80 1011.64 1010.81 1010.35 1009.78 1010.36 1009.94 1009.90 1009.75 1010.26 1010.21 1010.78 1010.96 1010.67 1011.38 1011.85 1012.06 1012.75 1013.00 1014.65 1015.88 1017.27 1018.28 1019.10 1019.81 1020.42 1021.16 1021.66 1022.21 1022.64 1023.93
1019.60 1018.56 1017.57 1016.54 1016.28 1016.22 1016.04 1014.95 1014.21 1013.53 1012.90 1012.30 1011.45 1010.96 1010.33 1010.45 1010.37 1010.01 1008.68 1009.45 1009.06 1009.32 1009.01 1009.61 1009.80 1010.14 1010.48 1010.61 1011.08 1011.50 1012.66 1013.83 1015.02 1016.35 1017.42 1018.10 1018.85 1019.53 1020.47 1021.38 1022.04 1022.61 1023.23
1018.60 1017.91 1017.37 1016.76 1016.37 1015.98 1015.43 1013.97 1013.35 1013.34 1013.12 1012.33 1011.77 1010.78 1010.10 1009.79 1010.05 1009.14 1008.72 1008.58 1008.51 1008.36 1007.91 1008.61 1009.29 1009.45 1009.59 1010.70 1010.82 1010.87 1012.07 1013.18 1014.07 1014.95 1015.85 1016.78 1017.38 1018.75 1020.06 1021.02 1022.00 1022.88 1023.70
1018.50 1017.89 1017.35 1016.84 1016.32 1015.94 1015.00 1014.44 1013.90 1013.52 1012.73 1012.11 1011.42 1010.57 1010.12 1009.46 1009.37 1008.96 1008.23 1007.66 1007.84 1007.31 1007.98 1007.78 1008.81 1009.45 1009.33 1009.76 1010.67 1011.55 1012.02 1012.63 1012.73 1013.81 1014.65 1015.94 1017.27 1018.85 1019.61 1019.94 1021.66 1022.72 1023.82
1018.76 1018.07 1017.46 1016.93 1016.38 1015.75 1015.08 1014.51 1013.93 1013.40 1012.75 1011.81 1011.01 1010.06 1009.55 1009.14 1009.00 1008.57 1007.90 1007.14 1006.79 1006.82 1008.00 1008.12 1008.78 1008.99 1009.01 1008.90 1010.30 1010.94 1011.54 1012.55 1012.55 1014.16 1014.52 1015.64 1016.48 1018.37 1019.28 1020.07 1021.07 1022.15 1023.20
1019.16 1018.35 1017.74 1016.98 1016.20 1015.56 1014.82 1013.75 1013.31 1012.79 1011.86 1011.08 1010.27 1009.70 1009.21 1009.06 1008.54 1007.81 1007.36 1006.59 1006.54 1007.26 1007.55 1007.84 1007.92 1008.30 1008.48 1008.39 1009.48 1009.85 1010.93 1011.46 1011.65 1013.37 1014.78 1014.89 1015.75 1017.63 1018.39 1019.81 1021.08 1021.95 1023.09
1018.72 1018.25 1017.64 1016.89 1016.23 1015.52 1014.73 1013.94 1012.91 1011.61 1011.23 1010.44 1009.77 1009.21 1008.66 1008.40 1007.85 1007.26 1006.79 1006.51 1006.71 1007.18 1006.93 1007.13 1007.33 1007.85 1008.02 1008.18 1008.76 1009.52 1010.66 1011.17 1011.05 1012.35 1014.11 1014.82 1015.97 1017.41 1018.19 1019.39 1020.52 1021.57 1023.03
1018.11 1017.70 1017.20 1016.65 1016.08 1015.26 1014.50 1013.67 1012.91 1012.04 1011.03 1010.26 1009.57 1009.00 1008.28 1007.81 1007.34 1006.85 1006.41 1006.45 1006.67 1006.55 1006.66 1006.63 1006.88 1007.18 1007.46 1008.18 1008.83 1009.52 1010.25 1011.24 1011.56 1012.12 1013.63 1014.57 1015.73 1016.73 1018.09 1019.22 1020.53 1021.21 1022.54
1017.69 1017.08 1016.62 1016.16 1015.70 1015.07 1014.23 1013.45 1012.67 1011.90 1011.09 1010.32 1009.43 1008.60 1008.02 1007.36 1006.86 1006.43 1006.16 1006.15 1006.37 1006.52 1006.72 1006.78 1006.84 1007.22 1007.60 1008.34 1008.82 1009.41 1009.91 1010.51 1011.70 1012.20 1013.51 1014.34 1015.34 1016.16 1017.41 1018.63 1019.79 1020.95 1022.02
1017.06 1016.42 1016.07 1015.69 1015.26 1014.81 1014.22 1013.57 1012.60 1011.77 1010.81 1010.08 1009.52 1008.83 1008.09 1007.44 1006.86 1006.54 1006.06 1006.06 1006.39 1006.67 1006.78 1006.90 1007.09 1007.30 1007.61 1007.98 1008.26 1009.30 1010.02 1010.51 1011.60 1012.21 1013.46 1014.28 1015.37 1015.93 1017.08 1018.46 1019.46 1020.52 1021.66
1016.41 1016.01 1015.81 1015.39 1015.15 1014.62 1013.98 1013.30 1012.57 1011.81 1010.88 1010.07 1009.34 1008.66 1007.98 1007.54 1006.89 1006.57 1006.22 1006.19 1006.33 1006.62 1006.74 1006.91 1007.08 1007.30 1007.65 1008.09 1008.58 1009.15 1009.83 1010.66 1011.32 1012.22 1013.09 1014.40 1015.27 1015.97 1017.02 1018.31 1019.44 1020.18 1021.24
1015.91 1015.59 1015.38 1015.15 1014.75 1014.26 1013.70 1013.05 1012.37 1011.48 1010.71 1009.89 1009.12 1008.53 1008.00 1007.32 1006.82 1006.22 1006.15 1006.07 1006.31 1006.56 1006.79 1006.92 1007.09 1007.28 1007.51 1007.94 1008.37 1008.95 1009.74 1010.58 1011.39 1012.31 1013.20 1014.16 1015.22 1016.00 1016.94 1018.17 1019.26 1020.00 1020.85
1015.20 1014.98 1014.81 1014.59 1014.27 1013.78 1013.22 1012.71 1012.12 1011.42 1010.62 1009.74 1008.95 1008.27 1007.80 1007.32 1006.84 1006.41 1006.04 1006.00 1006.25 1006.48 1006.77 1006.98 1007.14 1007.21 1007.52 1007.84 1008.12 1008.78 1009.40 1010.25 1011.29 1012.11 1012.98 1014.10 1014.90 1015.97 1016.95 1017.78 1018.86 1019.89 1020.64
1014.54 1014.32 1014.15 1013.94 1013.68 1013.22 1012.66 1012.14 1011.66 1011.06 1010.46 1009.81 1008.89 1008.13 1007.65 1007.30 1006.86 1006.50 1006.20 1005.96 1006.02 1006.28 1006.58 1006.90 1007.01 1007.24 1007.66 1007.83 1008.06 1008.72 1009.30 1010.02 1011.01 1011.89 1012.78 1013.72 1014.65 1015.66 1016.69 1017.47 1018.28 1019.28 1020.11
1013.73 1013.60 1013.41 1013.21 1013.02 1012.69 1012.21 1011.68 1011.18 1010.70 1010.22 1009.70 1009.04 1008.34 1007.54 1007.17 1006.90 1006.54 1006.26 1006.05 1006.02 1006.13 1006.37 1006.71 1006.96 1007.17 1007.73 1007.73 1007.96 1008.62 1009.28 1009.99 1010.86 1011.68 1012.52 1013.57 1014.25 1015.30 1016.23 1017.01 1017.76 1018.80 1019.74
1012.59 1012.61 1012.57 1012.45 1012.30 1012.00 1011.59 1011.14 1010.72 1010.32 1009.90 1009.46 1008.98 1008.46 1007.94 1007.21 1006.78 1006.61 1006.33 1006.15 1006.11 1006.16 1006.23 1006.64 1006.79 1007.04 1007.25 1007.61 1008.01 1008.47 1009.13 1010.00 1010.98 1011.55 1012.25 1013.09 1014.09 1014.92 1015.85 1016.75 1017.36 1018.31 1019.16
Thickness
5515 5527 5540 5554 5567 5585 5589 5594 5598 5605 5609 5609 5604 5604 5606 5607 5604 5601 5599 5597 5595 5594 5592 5595 5596 5596 5595 5592 5591 5589 5586 5584 5578 5562 5562 5561 5558 5557 5553 5551 5549 5545 5543
5499 5509 5519 5534 5552 5563 5582 5588 5592 5598 5598 5606 5604 5602 5599 5600 5599 5597 5595 5592 5591 5591 5591 5589 5591 5589 5590 5587 5585 5585 5584 5579 5570 5560 5551 5550 5552 5548 5547 5544 5540 5537 5535
5487 5497 5502 5515 5529 5543 5553 5567 5582 5589 5597 5593 5597 5598 5604 5598 5596 5595 5592 5589 5586 5587 5586 5586 5588 5584 5583 5582 5581 5579 5576 5571 5566 5558 5545 5541 5539 5539 5534 5533 5530 5527 5525
5469 5475 5487 5495 5509 5522 5533 5545 5557 5574 5583 5587 5589 5594 5593 5593 5590 5588 5586 5585 5584 5583 5583 5582 5583 5582 5582 5578 5576 5575 5570 5564 5557 5552 5542 5538 5534 5528 5529 5525 5518 5514 5511
5449 5464 5468 5482 5494 5506 5511 5527 5538 5547 5560 5574 5581 5582 5586 5584 5583 5582 5580 5582 5582 5581 5581 5580 5579 5579 5578 5577 5573 5569 5565 5558 5549 5542 5535 5533 5531 5522 5527 5520 5510 5504 5500
5432 5443 5450 5457 5476 5487 5500 5510 5518 5526 5537 5545 5554 5561 5573 5574 5579 5581 5580 5577 5578 5575 5577 5578 5577 5573 5572 5571 5568 5564 5564 5559 5544 5539 5532 5528 5536 5527 5523 5515 5504 5494 5488
5418 5426 5431 5439 5453 5469 5476 5488 5496 5505 5519 5525 5534 5539 5550 5559 5569 5570 5571 5572 5576 5573 5570 5568 5566 5567 5566 5562 5560 5558 5552 5552 5547 5542 5540 5537 5528 5529 5521 5506 5502 5498 5495
5399 5405 5409 5422 5432 5447 5458 5469 5481 5482 5497 5507 5514 5519 5529 5538 5548 5553 5559 5562 5564 5562 5566 5564 5562 5562 5560 5556 5553 5550 5551 5542 5545 5539 5536 5532 5530 5523 5515 5508 5498 5488 5478
5374 5377 5389 5400 5411 5424 5432 5443 5456 5463 5474 5487 5497 5500 5509 5519 5526 5533 5535 5544 5545 5552 5557 5556 5561 5559 5558 5557 5549 5543 5538 5537 5536 5531 5519 5522 5520 5514 5505 5495 5487 5477 5469
5354 5362 5373 5384 5395 5402 5411 5421 5432 5443 5452 5462 5479 5483 5493 5502 5514 5519 5520 5524 5529 5537 5538 5540 5551 5554 5549 5548 5542 5535 5531 5533 5522 5510 5506 5508 5506 5501 5499 5493 5482 5475 5465
5337 5346 5356 5365 5372 5380 5392 5405 5415 5424 5432 5442 5454 5462 5477 5490 5497 5497 5508 5507 5517 5519 5527 5525 5530 5539 5535 5532 5535 5533 5537 5524 5514 5504 5499 5495 5492 5488 5483 5479 5476 5471 5463
5320 5331 5342 5352 5359 5362 5366 5377 5388 5399 5410 5420 5433 5445 5458 5467 5472 5482 5496 5494 5502 5507 5519 5518 5523 5524 5525 5526 5525 5528 5518 5511 5502 5495 5490 5487 5484 5480 5474 5467 5461 5457 5452
5312 5318 5325 5332 5338 5345 5353 5368 5376 5375 5385 5394 5405 5421 5434 5443 5450 5465 5474 5481 5487 5496 5508 5509 5507 5512 5516 5507 5509 5512 5504 5499 5495 5493 5489 5484 5484 5473 5462 5456 5449 5442 5436
5294 5300 5307 5312 5319 5322 5335 5343 5349 5354 5362 5372 5385 5400 5410 5422 5429 5439 5453 5466 5473 5485 5488 5494 5491 5489 5495 5496 5493 5488 5488 5490 5493 5487 5482 5473 5465 5455 5450 5449 5436 5428 5420
5274 5279 5286 5292 5296 5304 5311 5319 5327 5334 5342 5352 5363 5378 5390 5401 5408 5417 5431 5445 5458 5467 5465 5465 5466 5471 5476 5480 5477 5478 5475 5472 5475 5466 5466 5459 5455 5441 5434 5430 5424 5417 5408
5255 5260 5262 5271 5279 5285 5292 5303 5309 5317 5329 5338 5347 5356 5368 5378 5388 5403 5413 5426 5434 5438 5440 5444 5451 5455 5462 5467 5464 5467 5463 5464 5465 5454 5445 5448 5443 5430 5426 5417 5407 5402 5393
5237 5240 5245 5252 5256 5262 5271 5280 5291 5302 5312 5323 5332 5339 5349 5357 5369 5383 5395 5404 5409 5409 5420 5427 5434 5437 5444 5450 5449 5449 5444 5447 5451 5444 5433 5429 5423 5414 5410 5401 5394 5387 5375
5228 5232 5230 5231 5235 5243 5250 5260 5269 5279 5290 5300 5312 5322 5333 5341 5349 5360 5371 5379 5386 5394 5402 5411 5416 5421 5426 5427 5428 5427 5428 5424 5425 5424 5415 5412 5406 5401 5391 5384 5375 5372 5361
5214 5214 5214 5217 5219 5225 5233 5239 5247 5257 5268 5279 5291 5303 5314 5326 5335 5342 5349 5357 5363 5371 5379 5386 5392 5397 5402 5402 5405 5406 5408 5407 5402 5402 5394 5393 5389 5385 5377 5370 5362 5355 5347
5202 5205 5206 5206 5205 5207 5211 5216 5226 5235 5248 5259 5268 5278 5290 5303 5314 5322 5332 5336 5339 5343 5351 5359 5367 5373 5378 5381 5386 5382 5382 5385 5381 5382 5377 5375 5367 5367 5361 5351 5345 5339 5331
5188 5186 5187 5189 5185 5189 5193 5198 5205 5214 5224 5235 5247 5258 5270 5280 5293 5302 5310 5317 5320 5323 5328 5333 5340 5347 5352 5357 5360 5361 5364 5363 5365 5362 5359 5353 5348 5346 5340 5331 5324 5320 5313
5172 5171 5168 5167 5170 5172 5175 5180 5186 5196 5205 5216 5228 5238 5248 5260 5272 5283 5291 5298 5301 5304 5308 5312 5317 5323 5330 5335 5340 5342 5343 5342 5341 5339 5337 5334 5329 5325 5319 5311 5305 5302 5297
5158 5156 5155 5153 5152 5157 5159 5161 5166 5173 5184 5197 5210 5221 5231 5241 5253 5262 5271 5277 5280 5285 5289 5294 5299 5305 5309 5314 5320 5321 5324 5324 5320 5318 5316 5311 5309 5304 5299 5296 5290 5284 5280
5145 5143 5141 5139 5138 5141 5144 5148 5151 5159 5167 5176 5192 5205 5215 5223 5235 5244 5251 5258 5264 5268 5273 5277 5283 5287 5289 5294 5299 5300 5302 5303 5299 5297 5296 5294 5291 5287 5283 5281 5279 5273 5268
5134 5131 5129 5127 5127 5127 5130 5133 5138 5143 5149 5159 5172 5186 5200 5208 5217 5227 5234 5241 5247 5252 5257 5261 5266 5272 5270 5278 5284 5284 5283 5283 5281 5281 5280 5276 5278 5275 5271 5268 5266 5262 5257
5126 5122 5121 5119 5118 5119 5122 5125 5128 5131 5137 5145 5155 5168 5180 5194 5203 5211 5219 5225 5232 5238 5244 5246 5252 5257 5261 5264 5268 5271 5270 5267 5264 5265 5266 5267 5264 5263 5259 5255 5254 5249 5245